Simultaneous Nadir Overpasses (SNOs) Predictions

Prediction of SNOs between GOES-15 and TERRA Satellite Orbit:

Table of predicted SNOs for the next 14.0 days since TLE Epoch: 1/14/2012
Index Date Time (GOES-15) GOES-15 Lat,Lon TERRA Lat,Lon Distance(km) Time Diff (sec)
1 01/14/2012 19:24:47 -0.01,-134.63 -0.10,-134.13 56.55 80
2 01/16/2012 19:12:35 -0.01,-134.59 -0.76,-131.18 388.93 80
3 01/17/2012 07:33:58 0.01,-134.63 -0.33,-136.37 196.70 80
4 01/19/2012 07:24:25 0.01,-134.59 0.28,-133.40 134.77 80
5 01/19/2012 19:45:40 -0.01,-134.52 0.82,-138.56 458.36 80
6 01/21/2012 07:12:12 0.02,-134.53 0.91,-130.44 465.77 80
7 01/21/2012 19:33:27 -0.02,-134.47 0.20,-135.59 127.49 80
8 01/23/2012 19:18:33 -0.02,-134.41 -0.38,-132.62 203.46 80
9 01/24/2012 07:39:57 0.01,-134.45 -0.71,-137.81 382.69 80
10 01/26/2012 07:27:44 0.01,-134.39 -0.07,-134.85 51.72 80




NCC Satellite Simultaneous Nadir Overpasses (SNOs) Prediction Service
